This is the latest recevied weather packets stored in our database for station/object KF0WJA. If no packets are shown the sender has not sent any weather packets the latest 10 day(s).
| Time | Temp. | Humidity | Pressure | Rain* | Wind** | Luminosity | Snow |
|---|---|---|---|---|---|---|---|
| 1787528820 | 27.22° C | 59% | 1018 hPa | 0 mm | - | 167 W/m² | - |
| 1787528515 | 27.22° C | 60% | 1017.9 hPa | 0 mm | - | 90 W/m² | - |
| 1787528211 | 27.78° C | 59% | 1017.9 hPa | 0 mm | - | 99 W/m² | - |
| 1787527908 | 28.33° C | 59% | 1018.2 hPa | 0 mm | - | 145 W/m² | - |
| 1787527603 | 28.33° C | 58% | 1018.2 hPa | 0 mm | - | 223 W/m² | - |
| 1787527299 | 28.89° C | 58% | 1018 hPa | 0 mm | - | 256 W/m² | - |
| 1787526994 | 28.33° C | 58% | 1018.1 hPa | 0 mm | - | 283 W/m² | - |
| 1787526690 | 28.33° C | 57% | 1018.1 hPa | 0 mm | - | 139 W/m² | - |
| 1787526386 | 28.33° C | 57% | 1018.1 hPa | 0 mm | - | 276 W/m² | - |
| 1787526082 | 28.33° C | 58% | 1018.5 hPa | 0 mm | - | 134 W/m² | - |
| 1787525778 | 28.33° C | 58% | 1018.4 hPa | 0 mm | - | 127 W/m² | - |
| 1787525478 | 28.89° C | 58% | 1018.4 hPa | 0 mm | - | 157 W/m² | - |
| 1787525173 | 28.33° C | 58% | 1018.5 hPa | 0 mm | - | 171 W/m² | - |
| 1787524869 | 28.33° C | 59% | 1018.6 hPa | 0 mm | - | 159 W/m² | - |
| 1787524565 | 28.33° C | 59% | 1018.7 hPa | 0 mm | - | 164 W/m² | - |
| 1787524265 | 28.33° C | 59% | 1018.6 hPa | 0 mm | - | 174 W/m² | - |
| 1787523960 | 28.33° C | 60% | 1018.6 hPa | 0 mm | - | 177 W/m² | - |
| 1787523655 | 28.33° C | 60% | 1018.7 hPa | 0 mm | - | 140 W/m² | - |
| 1787523355 | 28.33° C | 59% | 1018.9 hPa | 0 mm | - | 123 W/m² | - |
| 1787523050 | 28.89° C | 59% | 1018.6 hPa | 0 mm | - | 153 W/m² | - |
| 1787522747 | 28.89° C | 59% | 1018.7 hPa | 0 mm | - | 177 W/m² | - |
| 1787522442 | 28.89° C | 59% | 1019 hPa | 0 mm | - | 230 W/m² | - |
| 1787522136 | 28.89° C | 59% | 1018.7 hPa | 0 mm | - | 191 W/m² | - |
| 1787521831 | 28.89° C | 58% | 1018.7 hPa | 0 mm | - | 184 W/m² | - |
| 1787521530 | 28.89° C | 58% | 1018.7 hPa | 0 mm | - | 195 W/m² | - |
* Rain latest hour (hover to see other rain measurements)
** Current wind speed in m/s (hover to see current wind gust speed)